sat.trackr.live / text

‹ back to catalog

STARLINK-4503

NORAD 53528 · 2022-101B

PAYLOAD ACTIVE UNKNOWN

§ Identity

Operator
Country
US
Launch date
2022-08-19
Launch site
AFETR
Launch vehicle
Mass (kg)
RCS (m²)

Purposes: comms

External: N2YO · Heavens-Above · Gunter

§ Orbital elements

Epoch: 2026-05-25T03:42:16.519104Z

Period
95.44 min
Inclination
53.2127°
Eccentricity
0.0001433
Mean motion
15.08830081 rev/d
Perigee alt
538.8 km
Apogee alt
540.8 km
Semi-major
6,917.9 km
B*
1.7641e-7
RAAN
90.8588°
Arg perigee
71.6356°
Mean anomaly
288.4792°
Rev number
20,770

§ Raw data

STARLINK-45031 53528U 22101B   26145.15435786 -.00000285  00000+0  17641-6 0  99962 53528  53.2127  90.8588 0001433  71.6356 288.4792 15.08830081207702

JSON: /api/v1/satellites/53528 · /tle

For live sub-satellite position, see the globe view (requires WebGL).

§ Visibility from observer

Set your observer location to see the next 7 days of passes ≥ 10°. The values pass through the URL so the page stays shareable.

No JS? Fill the form by hand. The geolocation button needs JavaScript.